Weather History for La Junta, CO

Change the Weather History Date:

Saturday, March 23, 2013

  Actual Average Record
Temperature  
Mean Temperature 27 °F 46 °F  
Max Temperature 36 °F 62 °F 83 °F (1967)
Min Temperature 17 °F 31 °F 5 °F (1952)
Degree Days  
Heating Degree Days 38 19  
Month to date heating degree days 503 508  
Since 1 July heating degree days 4279 4609  
Cooling Degree Days 0 0  
Month to date cooling degree days 0 0  
Year to date cooling degree days 0 0  
Moisture  
Dew Point 23 °F    
Average Humidity 83    
Maximum Humidity 92    
Minimum Humidity 73    
Precipitation  
Precipitation 0.04 in 0.03 in 0.42 in (1980)
Month to date precipitation 0.24 0.55  
Year to date precipitation 0.35 1.20  
Sea Level Pressure  
Sea Level Pressure 29.94 in    
Wind  
Wind Speed 22 mph (NNE)    
Max Wind Speed 44 mph    
Max Gust Speed 52 mph    
Visibility 4 miles    
Events Fog , Rain , Snow    
T = Trace of Precipitation, MM = Missing Value Source: NWS Daily Summary

Daily Weather History Graph

Daily Weather History Graph

Search for Another Location

Airport:

Trip Planner

Search our weather history database for the weather conditions in past years. The results will help you decide how hot, cold, wet, or windy it might be!

Date:

Astronomy

Mar. 23, 2013 Rise Set
Actual Time 6:52 AM MDT 7:09 PM MDT
Civil Twilight 6:26 AM MDT 7:35 PM MDT
Nautical Twilight 5:55 AM MDT 8:06 PM MDT
Astronomical Twilight 5:24 AM MDT 8:37 PM MDT
Moon 3:41 PM MDT (3/23) 4:26 AM MDT (3/23)
Length of Visible Light 13h 09m
Length of Day
12h 16m
Waxing Gibbous, 85% of the Moon is Illuminated
Mar 23
Waxing Gibbous
Mar 27
Full
Apr 2
Last Quarter
Apr 10
New
Apr 18
First Quarter

Hourly Weather History & Observations

Time (MDT) Temp. Windchill Dew Point Humidity Pressure Visibility Wind Dir Wind Speed Gust Speed Precip Events Conditions
12:53 AM 36.0 °F 23.9 °F 28.9 °F 76% 29.62 in 10.0 mi NNE 25.3 mph 32.2 mph N/A   Clear
1:53 AM 35.1 °F 22.5 °F 30.0 °F 82% 29.69 in 10.0 mi North 26.5 mph 32.2 mph N/A   Mostly Cloudy
2:48 AM 35.6 °F 23.2 °F 30.2 °F 81% 29.74 in 10.0 mi North 26.5 mph 33.4 mph N/A   Overcast
2:53 AM 36.0 °F 23.9 °F 30.0 °F 79% 29.68 in 10.0 mi North 25.3 mph - N/A   Overcast
3:53 AM 34.0 °F 22.7 °F 28.9 °F 82% 29.71 in 10.0 mi North 19.6 mph - N/A   Overcast
4:53 AM 34.0 °F 23.4 °F 30.9 °F 89% 29.71 in 4.0 mi NNE 17.3 mph - N/A   Overcast
5:53 AM 32.0 °F 20.8 °F 30.0 °F 92% 29.74 in 4.0 mi NNE 17.3 mph - N/A   Overcast
6:53 AM 32.0 °F 20.5 °F 30.0 °F 92% 29.74 in 4.0 mi East 18.4 mph - N/A   Overcast
7:53 AM 32.0 °F 20.8 °F 28.9 °F 88% 29.76 in 4.0 mi ENE 17.3 mph - N/A   Overcast
8:15 AM 30.2 °F 18.9 °F 30.2 °F 100% 29.79 in 2.5 mi ENE 16.1 mph - N/A   Overcast
8:22 AM 30.2 °F 19.3 °F 30.2 °F 100% 29.79 in 1.8 mi ENE 15.0 mph - 0.00 in Rain Light Freezing Rain
8:29 AM 30.2 °F 19.8 °F 30.2 °F 100% 29.80 in 2.0 mi ENE 13.8 mph - 0.00 in   Overcast
8:41 AM 30.2 °F 18.5 °F 28.4 °F 93% 29.80 in 1.8 mi ENE 17.3 mph - 0.00 in Rain Light Freezing Rain
8:53 AM 30.9 °F 19.4 °F 28.9 °F 92% 29.78 in 1.8 mi ENE 17.3 mph - 0.00 in Rain Light Freezing Rain
9:03 AM 30.2 °F 18.5 °F 28.4 °F 93% 29.79 in 2.0 mi ENE 17.3 mph - 0.00 in Rain Light Freezing Rain
9:38 AM 30.2 °F 17.4 °F 28.4 °F 93% 29.79 in 2.0 mi East 20.7 mph - 0.00 in Snow Light Snow
9:53 AM 30.9 °F 19.1 °F 28.9 °F 92% 29.78 in 2.0 mi East 18.4 mph - 0.00 in Snow Light Snow
10:18 AM 30.2 °F 18.9 °F 28.4 °F 93% 29.79 in 2.5 mi East 16.1 mph - 0.00 in Snow Light Snow
10:48 AM 30.2 °F 18.9 °F 28.4 °F 93% 29.80 in 1.5 mi East 16.1 mph 26.5 mph 0.01 in Snow Light Snow
10:53 AM 30.9 °F 18.7 °F 28.9 °F 92% 29.80 in 1.5 mi East 19.6 mph 26.5 mph 0.01 in Snow Light Snow
11:28 AM 30.2 °F 17.1 °F 28.4 °F 93% 29.81 in 2.5 mi ENE 21.9 mph - 0.00 in Snow Light Snow
11:53 AM 30.0 °F 18.3 °F 28.0 °F 92% 29.83 in 2.5 mi NE 17.3 mph 26.5 mph 0.00 in Snow Light Snow
12:08 PM 30.2 °F 17.1 °F 26.6 °F 86% 29.83 in 1.2 mi NE 21.9 mph - 0.00 in Snow Light Snow
12:17 PM 28.4 °F 14.1 °F 26.6 °F 93% 29.84 in 0.8 mi NE 24.2 mph 29.9 mph 0.00 in Snow Light Snow
12:53 PM 28.0 °F 12.8 °F 25.0 °F 88% 29.89 in 0.2 mi NE 27.6 mph 38.0 mph 0.00 in Fog , Snow Heavy Snow
1:53 PM 21.9 °F 1.9 °F 19.0 °F 89% 29.96 in 0.2 mi North 39.1 mph 49.5 mph 0.02 in Fog Light Freezing Fog
2:25 PM 23.0 °F 3.7 °F 19.4 °F 86% 29.94 in 0.2 mi North 38.0 mph 49.5 mph N/A Fog Light Freezing Fog
2:46 PM 23.0 °F 3.4 °F 19.4 °F 86% 29.95 in 0.2 mi North 39.1 mph 47.2 mph N/A Fog Light Freezing Fog
2:53 PM 23.0 °F 3.4 °F 19.0 °F 85% 30.00 in 0.2 mi North 39.1 mph 48.3 mph N/A Fog Light Freezing Fog
3:40 PM 21.2 °F 2.2 °F 17.6 °F 86% 30.01 in 1.2 mi North 33.4 mph 40.3 mph 0.01 in   Overcast
3:53 PM 21.0 °F 1.9 °F 17.1 °F 85% 30.07 in 2.0 mi North 33.4 mph 43.7 mph 0.01 in   Overcast
4:07 PM 21.2 °F 2.7 °F 17.6 °F 86% 30.02 in 3.0 mi North 31.1 mph 42.6 mph N/A   Haze
4:24 PM 21.2 °F 2.4 °F 17.6 °F 86% 30.03 in 1.8 mi North 32.2 mph 40.3 mph N/A   Overcast
4:29 PM 21.2 °F 2.4 °F 17.6 °F 86% 30.03 in 0.8 mi North 32.2 mph 39.1 mph N/A   Overcast
4:36 PM 21.2 °F 2.2 °F 17.6 °F 86% 30.04 in 0.5 mi North 33.4 mph 39.1 mph N/A Fog Light Freezing Fog
4:53 PM 21.0 °F 3.3 °F 18.0 °F 88% 30.12 in 0.2 mi North 27.6 mph 41.4 mph N/A Fog Light Freezing Fog
5:25 PM 21.2 °F 3.9 °F 17.6 °F 86% 30.06 in 1.2 mi North 26.5 mph 33.4 mph N/A   Overcast
5:36 PM 21.2 °F 3.0 °F 17.6 °F 86% 30.07 in 1.0 mi North 29.9 mph 36.8 mph 0.00 in Snow Light Snow
5:43 PM 21.2 °F 3.3 °F 17.6 °F 86% 30.08 in 1.5 mi North 28.8 mph 41.4 mph 0.00 in   Haze
5:53 PM 21.9 °F 4.5 °F 17.1 °F 82% 30.15 in 1.8 mi North 27.6 mph 34.5 mph 0.00 in Snow Light Snow
6:10 PM 21.2 °F 4.2 °F 17.6 °F 86% 30.10 in 2.5 mi North 25.3 mph 35.7 mph 0.00 in   Overcast
6:21 PM 21.2 °F 4.9 °F 17.6 °F 86% 30.10 in 4.0 mi North 23.0 mph 33.4 mph 0.00 in   Overcast
6:53 PM 21.0 °F 2.7 °F 16.0 °F 81% 30.19 in 3.0 mi North 29.9 mph 34.5 mph 0.00 in   Haze
7:32 PM 21.2 °F 6.4 °F 17.6 °F 86% 30.14 in 2.5 mi North 18.4 mph - 0.00 in Snow Light Snow
7:41 PM 21.2 °F 6.4 °F 17.6 °F 86% 30.14 in 4.0 mi North 18.4 mph - 0.00 in   Overcast
7:48 PM 21.2 °F 6.8 °F 17.6 °F 86% 30.14 in 6.0 mi North 17.3 mph - 0.00 in   Overcast
7:53 PM 21.0 °F 5.7 °F 17.1 °F 85% 30.21 in 6.0 mi North 19.6 mph 25.3 mph 0.00 in   Overcast
8:53 PM 21.9 °F 8.2 °F 16.0 °F 78% 30.24 in 9.0 mi North 16.1 mph - N/A   Overcast
9:53 PM 21.9 °F 11.0 °F 16.0 °F 78% 30.25 in 10.0 mi NNW 10.4 mph - N/A   Overcast
10:53 PM 21.9 °F 10.4 °F 15.1 °F 75% 30.25 in 10.0 mi WNW 11.5 mph - N/A   Overcast
11:53 PM 19.0 °F 9.0 °F 12.9 °F 77% 30.27 in 10.0 mi West 8.1 mph - N/A   Mostly Cloudy